DLH9M EDDH-EDDM

Flight info

Callsign DLH9M
Flight time 1h 1m
Altitude 35000
Route AMLUH2C/05 AMLUH M852 DENIX DCT ZUCKA DCT SODRO/N0445F310 T703 LULAR/N0444F300 T105 LANDU LANDU2A
Aircraft A321/M-SDE3FGHIRWY/LB1

Departure

Time 2026-05-06 15:15
Airport Hamburg Helmut Schmidt Airport (EDDH)

Arrival

Time 2026-05-06 16:16
Airport Munich Airport (EDDM)
Time Latitude Longitude Altitude Speed Heading
2026-05-06 14:14 53.62739 10.00307 49 ft 0 kts 62°
2026-05-06 15:07 53.62739 10.00306 48 ft 1 kts 62°
2026-05-06 15:08 53.62729 10.00268 47 ft 4 kts 72°
2026-05-06 15:08 53.62723 10.00224 43 ft 4 kts 90°
2026-05-06 15:08 53.62728 10.00182 44 ft 4 kts 124°
2026-05-06 15:08 53.62739 10.00162 42 ft 0 kts 153°
2026-05-06 15:11 53.62734 10.00166 46 ft 3 kts 153°
2026-05-06 15:11 53.62701 10.00195 48 ft 6 kts 153°
2026-05-06 15:11 53.62659 10.00232 48 ft 8 kts 152°
2026-05-06 15:12 53.62605 10.00268 48 ft 9 kts 175°
2026-05-06 15:12 53.62567 10.00206 48 ft 0 kts 243°
2026-05-06 15:12 53.62566 10.00202 48 ft 2 kts 243°
2026-05-06 15:13 53.62540 10.00112 46 ft 15 kts 248°
2026-05-06 15:13 53.62544 10.00038 47 ft 3 kts 303°
2026-05-06 15:13 53.62592 9.99983 47 ft 13 kts 332°
2026-05-06 15:13 53.62599 9.99977 47 ft 0 kts 333°
2026-05-06 15:14 53.62624 9.99956 47 ft 17 kts 333°
2026-05-06 15:14 53.62983 9.99653 45 ft 95 kts 333°
2026-05-06 15:14 53.63774 9.98964 49 ft 157 kts 332°
2026-05-06 15:14 53.64823 9.98032 416 ft 177 kts 336°
2026-05-06 15:15 53.65917 9.97081 1242 ft 177 kts 338°
2026-05-06 15:15 53.67062 9.96109 1787 ft 194 kts 339°
2026-05-06 15:15 53.68331 9.95071 2162 ft 207 kts 344°
2026-05-06 15:15 53.69737 9.94660 2760 ft 205 kts
2026-05-06 15:16 53.71161 9.94678 3538 ft 206 kts
2026-05-06 15:16 53.72552 9.95149 4232 ft 205 kts 31°
2026-05-06 15:16 53.73605 9.96737 4887 ft 207 kts 60°
2026-05-06 15:16 53.74035 9.99035 5542 ft 212 kts 83°
2026-05-06 15:17 53.74194 10.01538 6253 ft 217 kts 87°
2026-05-06 15:17 53.73977 10.04077 6897 ft 225 kts 105°
2026-05-06 15:17 53.73248 10.06582 7169 ft 250 kts 117°
2026-05-06 15:17 53.72349 10.09239 7531 ft 268 kts 117°
2026-05-06 15:18 53.71415 10.12009 8221 ft 274 kts 117°
2026-05-06 15:18 53.70467 10.14825 8974 ft 278 kts 118°
2026-05-06 15:18 53.69460 10.17634 9712 ft 282 kts 126°
2026-05-06 15:18 53.68054 10.19971 10393 ft 287 kts 142°
2026-05-06 15:19 53.66235 10.21618 10607 ft 310 kts 160°
2026-05-06 15:19 53.64084 10.22630 10739 ft 331 kts 163°
2026-05-06 15:19 53.61827 10.23646 10970 ft 346 kts 163°
2026-05-06 15:19 53.59479 10.24707 11528 ft 350 kts 163°
2026-05-06 15:20 53.57117 10.25778 12161 ft 352 kts 164°
2026-05-06 15:20 53.54738 10.26854 12776 ft 354 kts 164°
2026-05-06 15:20 53.52353 10.27936 13374 ft 358 kts 165°
2026-05-06 15:20 53.49940 10.29035 13956 ft 360 kts 165°
2026-05-06 15:21 53.47516 10.30146 14527 ft 362 kts 165°
2026-05-06 15:21 53.45076 10.31266 15072 ft 365 kts 165°
2026-05-06 15:21 53.42610 10.32394 15566 ft 369 kts 165°
2026-05-06 15:21 53.40150 10.33512 16091 ft 372 kts 166°
2026-05-06 15:22 53.37645 10.34646 16643 ft 374 kts 167°
2026-05-06 15:22 53.35129 10.35780 17163 ft 376 kts 167°
2026-05-06 15:22 53.32591 10.36912 17655 ft 379 kts 167°
2026-05-06 15:22 53.30035 10.38050 18139 ft 381 kts 167°
2026-05-06 15:23 53.27459 10.39195 18513 ft 384 kts 167°
2026-05-06 15:23 53.24867 10.40350 18904 ft 387 kts 167°
2026-05-06 15:23 53.22254 10.41515 19382 ft 390 kts 167°
2026-05-06 15:23 53.19624 10.42680 19869 ft 393 kts 167°
2026-05-06 15:24 53.16973 10.43859 20268 ft 395 kts 166°
2026-05-06 15:24 53.14306 10.45051 20671 ft 398 kts 166°
2026-05-06 15:24 53.11619 10.46197 21059 ft 400 kts 168°
2026-05-06 15:24 53.08886 10.47171 21468 ft 402 kts 170°
2026-05-06 15:25 53.03225 10.48845 22254 ft 407 kts 171°
2026-05-06 15:25 53.00426 10.49631 22663 ft 409 kts 171°
2026-05-06 15:25 52.97615 10.50444 23055 ft 412 kts 171°
2026-05-06 15:26 52.94785 10.51297 23449 ft 414 kts 170°
2026-05-06 15:26 52.91947 10.52174 23776 ft 416 kts 170°
2026-05-06 15:26 52.89101 10.53061 24158 ft 417 kts 169°
2026-05-06 15:26 52.86239 10.53953 24457 ft 420 kts 169°
2026-05-06 15:27 52.83396 10.54836 24826 ft 421 kts 169°
2026-05-06 15:27 52.80470 10.55744 25144 ft 424 kts 169°
2026-05-06 15:27 52.77598 10.56636 25451 ft 427 kts 169°
2026-05-06 15:27 52.74672 10.57540 25788 ft 428 kts 170°
2026-05-06 15:28 52.71735 10.58442 26135 ft 430 kts 170°
2026-05-06 15:28 52.68782 10.59344 26459 ft 432 kts 171°
2026-05-06 15:28 52.65826 10.60242 26863 ft 432 kts 171°
2026-05-06 15:28 52.62865 10.61139 27227 ft 433 kts 171°
2026-05-06 15:29 52.59896 10.62043 27545 ft 435 kts 171°
2026-05-06 15:29 52.56919 10.62957 27855 ft 437 kts 171°
2026-05-06 15:29 52.53924 10.63873 28148 ft 438 kts 171°
2026-05-06 15:29 52.50921 10.64785 28471 ft 439 kts 172°
2026-05-06 15:30 52.47918 10.65696 28788 ft 439 kts 172°
2026-05-06 15:30 52.44918 10.66606 29104 ft 439 kts 172°
2026-05-06 15:30 52.41954 10.67506 29499 ft 438 kts 172°
2026-05-06 15:30 52.38963 10.68410 29870 ft 436 kts 172°
2026-05-06 15:31 52.35981 10.69309 30172 ft 436 kts 172°
2026-05-06 15:31 52.32998 10.70210 30454 ft 435 kts 172°
2026-05-06 15:31 52.30021 10.71111 30729 ft 435 kts 172°
2026-05-06 15:32 52.24075 10.72898 31282 ft 433 kts 173°
2026-05-06 15:32 52.21111 10.73783 31560 ft 433 kts 173°
2026-05-06 15:32 52.18145 10.74666 31828 ft 433 kts 173°
2026-05-06 15:32 52.15181 10.75548 32097 ft 433 kts 173°
2026-05-06 15:33 52.12221 10.76431 32351 ft 433 kts 173°
2026-05-06 15:33 52.09255 10.77316 32612 ft 432 kts 173°
2026-05-06 15:33 52.06334 10.78185 32853 ft 432 kts 173°
2026-05-06 15:33 52.03374 10.79061 33104 ft 432 kts 173°
2026-05-06 15:34 52.00421 10.79935 33365 ft 431 kts 173°
2026-05-06 15:34 51.97467 10.80809 33636 ft 431 kts 173°
2026-05-06 15:34 51.94516 10.81682 33859 ft 430 kts 173°
2026-05-06 15:34 51.91572 10.82553 34065 ft 430 kts 173°
2026-05-06 15:35 51.88629 10.83423 34259 ft 430 kts 173°
2026-05-06 15:35 51.85682 10.84291 34454 ft 430 kts 173°
2026-05-06 15:35 51.82781 10.85145 34648 ft 429 kts 173°
2026-05-06 15:35 51.79835 10.86010 34757 ft 430 kts 173°
2026-05-06 15:36 51.73952 10.87742 34780 ft 430 kts 173°
2026-05-06 15:36 51.68082 10.89606 34776 ft 433 kts 167°
2026-05-06 15:37 51.62515 10.93506 34777 ft 438 kts 158°
2026-05-06 15:37 51.57078 10.97828 34775 ft 438 kts 158°
2026-05-06 15:38 51.51602 11.02132 34771 ft 438 kts 158°
2026-05-06 15:38 51.46123 11.06418 34776 ft 438 kts 158°
2026-05-06 15:39 51.40651 11.10705 34778 ft 437 kts 158°
2026-05-06 15:39 51.35189 11.14975 34793 ft 436 kts 158°
2026-05-06 15:40 51.29741 11.19217 34795 ft 435 kts 158°
2026-05-06 15:40 51.24340 11.23417 34786 ft 435 kts 158°
2026-05-06 15:41 51.18899 11.27634 34791 ft 434 kts 158°
2026-05-06 15:41 51.13466 11.31828 34793 ft 434 kts 158°
2026-05-06 15:42 51.08031 11.36013 34790 ft 434 kts 159°
2026-05-06 15:42 51.02594 11.40203 34790 ft 434 kts 158°
2026-05-06 15:43 50.97192 11.44353 34766 ft 434 kts 159°
2026-05-06 15:43 50.91754 11.48513 34774 ft 434 kts 159°
2026-05-06 15:44 50.86312 11.52664 34779 ft 434 kts 159°
2026-05-06 15:44 50.80864 11.56800 34782 ft 434 kts 159°
2026-05-06 15:45 50.75452 11.60910 34774 ft 434 kts 159°
2026-05-06 15:45 50.69997 11.65032 34770 ft 435 kts 159°
2026-05-06 15:46 50.64537 11.69162 34772 ft 435 kts 159°
2026-05-06 15:46 50.59075 11.73285 34761 ft 435 kts 160°
2026-05-06 15:47 50.53604 11.77384 34784 ft 435 kts 160°
2026-05-06 15:47 50.48137 11.81471 34795 ft 435 kts 160°
2026-05-06 15:48 50.42682 11.85434 34803 ft 434 kts 161°
2026-05-06 15:48 50.37130 11.89151 34807 ft 433 kts 162°
2026-05-06 15:49 50.31578 11.92814 34806 ft 433 kts 162°
2026-05-06 15:49 50.26035 11.96522 34806 ft 433 kts 162°
2026-05-06 15:50 50.20547 12.00231 34796 ft 433 kts 162°
2026-05-06 15:50 50.15024 12.03962 34789 ft 432 kts 162°
2026-05-06 15:51 50.09500 12.07652 34789 ft 431 kts 162°
2026-05-06 15:51 50.03981 12.11320 34789 ft 431 kts 162°
2026-05-06 15:52 49.98462 12.14997 34780 ft 431 kts 162°
2026-05-06 15:52 49.92947 12.18664 34774 ft 431 kts 162°
2026-05-06 15:53 49.87471 12.22279 34777 ft 430 kts 162°
2026-05-06 15:53 49.81966 12.25919 34780 ft 430 kts 162°
2026-05-06 15:54 49.76457 12.29553 34737 ft 430 kts 163°
2026-05-06 15:54 49.71084 12.33697 34765 ft 439 kts 151°
2026-05-06 15:55 49.66190 12.39411 34761 ft 441 kts 149°
2026-05-06 15:55 49.61290 12.45140 34767 ft 441 kts 149°
2026-05-06 15:56 49.56418 12.50805 34770 ft 442 kts 149°
2026-05-06 15:56 49.51509 12.56502 34769 ft 442 kts 150°
2026-05-06 15:57 49.47392 12.61261 34763 ft 442 kts 150°
2026-05-06 15:57 49.42591 12.67082 34739 ft 446 kts 144°
2026-05-06 15:58 49.40160 12.69940 34741 ft 433 kts 159°
2026-05-06 15:58 49.37402 12.71563 34742 ft 419 kts 174°
2026-05-06 15:58 49.34540 12.72082 34739 ft 410 kts 185°
2026-05-06 15:58 49.31726 12.71688 34739 ft 404 kts 196°
2026-05-06 15:59 49.26522 12.68700 34730 ft 399 kts 207°
2026-05-06 15:59 49.21469 12.65148 34742 ft 400 kts 207°
2026-05-06 16:00 49.16465 12.61576 34748 ft 400 kts 207°
2026-05-06 16:00 49.11429 12.57964 34378 ft 398 kts 208°
2026-05-06 16:01 49.08915 12.56168 33814 ft 399 kts 208°
2026-05-06 16:01 49.06417 12.54390 32718 ft 395 kts 208°
2026-05-06 16:01 49.03921 12.52616 31666 ft 396 kts 208°
2026-05-06 16:01 49.01418 12.50831 30654 ft 399 kts 208°
2026-05-06 16:02 48.98899 12.49025 29644 ft 402 kts 207°
2026-05-06 16:02 48.96360 12.47204 28518 ft 405 kts 207°
2026-05-06 16:02 48.93812 12.45385 27422 ft 402 kts 207°
2026-05-06 16:02 48.91329 12.43617 26390 ft 396 kts 207°
2026-05-06 16:03 48.88850 12.41853 25382 ft 390 kts 206°
2026-05-06 16:03 48.86411 12.40118 24411 ft 385 kts 206°
2026-05-06 16:03 48.84002 12.38399 23454 ft 379 kts 208°
2026-05-06 16:03 48.81882 12.36113 22382 ft 372 kts 225°
2026-05-06 16:04 48.80327 12.32997 21320 ft 370 kts 234°
2026-05-06 16:04 48.78916 12.29750 20317 ft 368 kts 235°
2026-05-06 16:04 48.77508 12.26521 19322 ft 366 kts 234°
2026-05-06 16:04 48.76100 12.23309 18353 ft 363 kts 234°
2026-05-06 16:05 48.74706 12.20139 17321 ft 360 kts 234°
2026-05-06 16:05 48.73319 12.17012 16267 ft 355 kts 234°
2026-05-06 16:05 48.71941 12.13934 15249 ft 351 kts 234°
2026-05-06 16:05 48.70581 12.10928 14273 ft 348 kts 234°
2026-05-06 16:06 48.69213 12.07934 13300 ft 345 kts 234°
2026-05-06 16:06 48.67851 12.04960 12238 ft 341 kts 234°
2026-05-06 16:06 48.66512 12.02019 11218 ft 338 kts 233°
2026-05-06 16:06 48.64884 11.99527 10227 ft 331 kts 213°
2026-05-06 16:07 48.62800 11.98211 9228 ft 323 kts 190°
2026-05-06 16:07 48.60595 11.98259 8183 ft 317 kts 167°
2026-05-06 16:07 48.58617 11.99642 7177 ft 313 kts 142°
2026-05-06 16:07 48.57179 12.02016 6210 ft 310 kts 126°
2026-05-06 16:08 48.55954 12.04664 5345 ft 303 kts 124°
2026-05-06 16:08 48.54799 12.07176 5066 ft 282 kts 124°
2026-05-06 16:08 48.53699 12.09560 4937 ft 271 kts 124°
2026-05-06 16:08 48.52651 12.11823 4928 ft 258 kts 124°
2026-05-06 16:09 48.51623 12.14035 4927 ft 257 kts 124°
2026-05-06 16:09 48.50489 12.16100 4946 ft 256 kts 141°
2026-05-06 16:09 48.48916 12.17176 4946 ft 243 kts 169°
2026-05-06 16:09 48.47274 12.17482 4941 ft 234 kts 174°
2026-05-06 16:10 48.45664 12.17693 4951 ft 232 kts 174°
2026-05-06 16:10 48.44060 12.17893 4944 ft 231 kts 174°
2026-05-06 16:10 48.42481 12.17964 4942 ft 231 kts 188°
2026-05-06 16:10 48.41024 12.16961 4944 ft 236 kts 219°
2026-05-06 16:11 48.39981 12.15036 4959 ft 238 kts 233°
2026-05-06 16:11 48.39114 12.12901 4964 ft 240 kts 247°
2026-05-06 16:11 48.38797 12.10516 4965 ft 224 kts 263°
2026-05-06 16:11 48.38640 12.08256 4973 ft 214 kts 264°
2026-05-06 16:12 48.38483 12.06063 4740 ft 211 kts 263°
2026-05-06 16:12 48.38320 12.03853 4371 ft 213 kts 264°
2026-05-06 16:12 48.38157 12.01657 4067 ft 206 kts 264°
2026-05-06 16:12 48.38003 11.99588 3814 ft 192 kts 264°
2026-05-06 16:13 48.37858 11.97650 3561 ft 181 kts 264°
2026-05-06 16:13 48.37722 11.95834 3335 ft 175 kts 264°
2026-05-06 16:13 48.37587 11.94036 3115 ft 172 kts 264°
2026-05-06 16:13 48.37454 11.92264 2889 ft 167 kts 264°
2026-05-06 16:14 48.37327 11.90578 2698 ft 156 kts 264°
2026-05-06 16:14 48.37207 11.88994 2468 ft 150 kts 264°
2026-05-06 16:14 48.37092 11.87468 2245 ft 143 kts 265°
2026-05-06 16:14 48.36980 11.85982 2027 ft 143 kts 265°
2026-05-06 16:15 48.36867 11.84498 1813 ft 142 kts 265°
2026-05-06 16:15 48.36757 11.83020 1636 ft 142 kts 266°
2026-05-06 16:15 48.36644 11.81542 1498 ft 136 kts 265°
2026-05-06 16:15 48.36548 11.80271 1485 ft 106 kts 263°
2026-05-06 16:16 48.36476 11.79341 1485 ft 69 kts 263°
2026-05-06 16:16 48.36415 11.78946 1476 ft 26 kts 245°
2026-05-06 16:16 48.36310 11.78721 1483 ft 26 kts 234°
2026-05-06 16:16 48.36201 11.78512 1481 ft 18 kts 223°
2026-05-06 16:17 48.36186 11.78498 1480 ft 0 kts 208°
2026-05-06 16:17 48.36157 11.78486 1476 ft 13 kts 189°
2026-05-06 16:18 48.36047 11.78535 1482 ft 20 kts 117°
2026-05-06 16:18 48.36050 11.78750 1475 ft 22 kts 84°
2026-05-06 16:18 48.36067 11.78985 1482 ft 23 kts 83°
2026-05-06 16:18 48.36085 11.79231 1480 ft 20 kts 86°
2026-05-06 16:19 48.36026 11.79324 1478 ft 13 kts 168°
2026-05-06 16:19 48.35940 11.79350 1478 ft 12 kts 158°
2026-05-06 16:19 48.35872 11.79439 1479 ft 14 kts 150°
2026-05-06 16:19 48.35790 11.79465 1485 ft 10 kts 174°
2026-05-06 16:20 48.35714 11.79477 1476 ft 12 kts 174°
2026-05-06 16:20 48.35640 11.79489 1482 ft 10 kts 174°
2026-05-06 16:20 48.35610 11.79494 1478 ft 0 kts 174°
2026-05-06 16:21 48.35603 11.79495 1482 ft 2 kts 174°
2026-05-06 16:21 48.35595 11.79496 1482 ft 1 kts 174°
2026-05-06 16:21 48.35577 11.79499 1485 ft 4 kts 174°
2026-05-06 16:21 48.35544 11.79504 1479 ft 6 kts 174°
2026-05-06 16:22 48.35499 11.79493 1483 ft 8 kts 208°
2026-05-06 16:22 48.35467 11.79424 1482 ft 9 kts 257°
2026-05-06 16:22 48.35458 11.79336 1478 ft 6 kts 263°
2026-05-06 16:22 48.35456 11.79310 1479 ft 2 kts 263°
2026-05-06 16:23 48.35456 11.79308 1480 ft 0 kts 263°